{"data":{"norad_id":66435,"epoch":"2026-09-20T15:48:56.283264Z","epoch_age_seconds":79656,"freshness":"FRESH","line1":"1 66435U 25259P   26263.65898476  .00010876  00000+0  40412-3 0  9994","line2":"2 66435  43.0003 252.8876 0000964 282.0109  78.0634 15.27583756 49319","mean_motion":15.27583756,"eccentricity":9.64e-5,"inclination_deg":43.0003,"raan_deg":252.8876,"arg_perigee_deg":282.0109,"mean_anomaly_deg":78.0634,"bstar":0.00040412,"rev_number":4931,"period_min":94.266516931985,"perigee_km":482.37643199202,"apogee_km":483.69926650295,"semimajor_km":6861.1748492475,"source":"CELESTRAK","updated_at":"2026-09-21T09:00:35.908808Z"}}